Regional Weather Roundup
Issued by NWS

Home | Current Version | Previous Version | Graphics & Text | Print | Product List | Glossary On
Versions: 1 2 3 4 5 6 7 8 9 10 11 12 13 14 15 16 17 18 19 20 21 22 23 24 25 26 27 28 29 30 31 32 33 34 35 36 37 38 39 40 41 42 43 44 45 46 47 48 49 50
880
ASUS45 KBOU 300007
RWRCO

WEATHER ROUNDUP FOR COLORADO
NATIONAL WEATHER SERVICE DENVER/BOULDER CO
600 PM MDT FRI APR 29 2016

NOTE: "FAIR" INDICATES FEW OR NO CLOUDS BELOW 12000 FEET WITH NO
SIGNIFICANT WEATHER AND/OR OBSTRUCTIONS TO VISIBILITY.

COZ001>005-013-030-031-300100-
...NORTHWEST COLORADO...

CITY           SKY/WX    TMP DP  RH WIND       PRES   REMARKS
CRAIG          CLOUDY    49  34  56 N16       29.79S
HAYDEN         FAIR      39  32  75 S8        29.81R
MEEKER         LGT RAIN  42  36  79 SE3       29.81R
MOUNT WERNER   NOT AVBL
STEAMBOAT SPGS CLOUDY    34  33  96 CALM      29.81S
WALDEN         CLOUDY    32  30  93 N6        29.85R WCI  26
$$

COZ006>008-011-300100-
...WEST CENTRAL VALLEYS...

CITY           SKY/WX    TMP DP  RH WIND       PRES   REMARKS
GRAND JUNCTION FAIR      57  35  43 W14       29.74S
MONTROSE       CLOUDY    51  32  48 W14       29.78F
EAGLE          CLOUDY    41  37  87 SW6       29.82S
RIFLE          LGT RAIN  46  37  71 NW17G25   29.78R
DELTA          NOT AVBL
NUCLA          NOT AVBL
$$

COZ017>023-064>068-300100-
...SOUTHWEST COLORADO...

CITY           SKY/WX    TMP DP  RH WIND       PRES   REMARKS
DURANGO        FAIR      50  30  46 NW21G28   29.78R
CORTEZ         PTSUNNY   54  30  40 NW9G20    29.80R
PAGOSA SPRINGS LGT SNOW  35  35  98 CALM      29.84R
TELLURIDE      LGT SNOW  33  31  96 W15       29.87R WCI  22
WOLF CREEK PAS SNOW      21  21 100 MISG      29.90R VSB<1/4
$$

COZ009-010-012-014-032>034-037-058>063-300100-
...CENTRAL COLORADO...

CITY           SKY/WX    TMP DP  RH WIND       PRES   REMARKS
ASPEN          LGT RAIN  36  33  89 N5        29.80R
BUENA VISTA    LGT SNOW  32  29  91 S9        29.84R WCI  24
COPPER MTN     NOT AVBL
BERTHOUD PASS  HAZE      16   5  62 E18       29.86S VSB<1/4 WCI  -1
COTTONWOOD PAS NOT AVBL
GUNNISON       PTSUNNY   37  30  75 NE5       29.81S
KREMMLING      CLOUDY    41  30  65 CALM      29.81S
LEADVILLE      SNOW      27  27 100 S8        29.81R VSB 1/4 WCI  19
MONARCH PASS   CLOUDY    21  18  86 NE5       29.94S WCI  15
SALIDA         CLOUDY    35  32  89 E8        29.91R WCI  28
SUNLIGHT       FOG       30  30 100 CALM      29.89R VSB<1/4
WILKERSON PASS CLOUDY   N/A N/A N/A E8        29.87S FOG
$$

COZ069>075-300100-
...SAN LUIS VALLEY/SANGRE DE CRISTO MOUNTAINS...

CITY           SKY/WX    TMP DP  RH WIND       PRES   REMARKS
ALAMOSA        FLURRIES  35  33  92 NW3       29.81R
LA VETA PASS   SNOW      23  19  86 MISG      29.84R VSB 1/2
SAGUACHE       LGT SNOW  32  32 100 W3        29.84R
$$

COZ035-036-038>040-300100-
...NORTHERN COLORADO FRONT RANGE...

CITY           SKY/WX    TMP DP  RH WIND       PRES   REMARKS
DENVER INTL AP LGT SNOW  33  29  85 N8        29.91S VSB 1   WCI  26
DMNS CITY PARK   N/A     34  33  96 NE12      29.91F WCI  26
AURORA         LGT SNOW  33  33  99 N8        29.91S FOG     WCI  26
FRONT RANGE AP LGT SNOW  32  32 100 N6        29.91S VSB 1   WCI  26
ERIE MUNI ARPT RAIN      36  34  92 NE3       29.92S
BOULDER MUN AP RAIN      36  36 100 N3        29.92S
CENTENNIAL     LGT SNOW  33  31  92 N8        29.90S FOG     WCI  26
BROOMFIELD     LGT SNOW  36  36 100 N6        29.92R
FORT COLLINS   PTSUNNY   37  34  87 E3        29.93S
LONGMONT       MIX PCPN  39  36  89 CALM      29.95R
$$

COZ041-046-047-076>085-087-088-300100-
...PIKES PEAK/PALMER DIVIDE AND SOUTHERN FOOTHILLS...

CITY           SKY/WX    TMP DP  RH WIND       PRES   REMARKS
COLO. SPRINGS  SNOW      33  29  85 N10       29.88S VSB 1/4 WCI  25
A. F. ACADEMY  LGT SNOW  32  32 100 N8        29.87S FOG     WCI  25
SCHRIEVER AFB  NOT AVBL
ELLICOTT       NOT AVBL
FALCON         LGT SNOW  32  29  90 N10       29.88S WCI  23
FORT CARSON    LGT SNOW  33  32  94 NE6       29.87R FOG     WCI  28
LIMON          LGT SNOW  31  30  96 NW13      29.87R FOG     WCI  21
MONUMENT HILL  LGT SNOW  28  28 100 N8        29.89R WCI  20
TRINIDAD       CLOUDY    34  29  82 N7        29.86R WCI  28
$$

COZ042>045-048>051-090-091-300100-
...NORTHEAST COLORADO...

CITY           SKY/WX    TMP DP  RH WIND       PRES   REMARKS
GREELEY ARPT     N/A     37  34  87 N5        29.93S
AKRON          SNOW      32  31  96 N9        29.89F VSB 1/2 WCI  24
BURLINGTON     SNOW      33  31  92 N12       29.85F VSB 1/2 WCI  24
WRAY           NOT AVBL
STERLING       SNOW      32  32 100 N5        29.93R VSB 1/2 WCI  27
HOLYOKE        NOT AVBL
FORT MORGAN    LGT SNOW  32  32  99 N8        29.93S WCI  25
$$

COZ086-089-092>099-300100-
...SOUTHEAST COLORADO...

CITY           SKY/WX    TMP DP  RH WIND       PRES   REMARKS
PUEBLO         LGT RAIN  39  33  79 N3        29.89R
LA JUNTA       CLOUDY    39  36  89 N15       29.86S
LAMAR          CLOUDY    39  36  89 N13       29.84R
SPRINGFIELD      N/A     39  36  89 N15       29.82R
$$




USA.gov is the U.S. government's official web portal to all federal, state and local government web resources and services.